FW6466 Weather Reports


Display with metric or nautical units.
time (UTC)temp
F
wind
direction
speed
MPH
gust
MPH
rain 1hr
in
rain 24hr
in
rain mn
in
humidity
%
barometer
mb
20260509055016 44 180 1.0 1.0 0.00 0.00 0.00 59 1012.3
20260509054057 44 180 0.0 1.0 0.00 0.00 0.00 59 1012.3
20260509053321 45 0.0 0.0 0.00 0.00 0.00 63 1012.4
20260509052517 45 0.0 0.0 0.00 0.00 0.00 62 1012.4
20260509051516 45 1 0.0 1.0 0.00 0.00 0.00 63 1012.5
20260509050517 44 202 0.0 1.0 0.00 0.00 0.00 64 1012.5
20260509045516 44 202 1.0 1.0 0.00 0.00 0.00 63 1012.5
20260509044537 44 0.0 1.0 0.00 0.00 0.00 63 1012.4
20260509043516 44 62 1.0 2.0 0.00 0.00 0.00 60 1012.3
20260509042610 43 0.0 1.0 0.00 0.00 0.00 61 1012.2
20260509042016 43 187 0.0 2.0 0.00 0.00 0.00 60 1012.1
20260509041017 43 90 0.0 1.0 0.00 0.00 0.00 60 1012.1
20260509040016 43 225 0.0 1.0 0.00 0.00 0.00 60 1012.0
20260509035017 43 136 0.0 2.0 0.00 0.00 0.00 60 1012.0
20260509034017 43 90 1.0 1.0 0.00 0.00 0.00 60 1012.1
20260509033036 43 89 1.0 2.0 0.00 0.00 0.00 59 1012.1
20260509032017 44 130 1.0 3.0 0.00 0.00 0.00 59 1012.1
20260509031016 44 202 2.0 3.0 0.00 0.00 0.00 59 1012.1
20260509030017 44 183 1.0 3.0 0.00 0.00 0.00 58 1012.2
20260509025015 44 202 2.0 3.0 0.00 0.00 0.00 59 1012.2
20260509024016 45 202 2.0 3.0 0.00 0.00 0.00 58 1012.2
20260509023037 45 204 2.0 4.0 0.00 0.00 0.00 58 1012.1
20260509022016 45 195 2.0 4.0 0.00 0.00 0.00 57 1011.9
20260509021017 45 208 2.0 3.0 0.00 0.00 0.00 56 1011.8
20260509020017 45 199 2.0 3.0 0.00 0.00 0.00 56 1011.8
20260509015016 46 199 2.0 3.0 0.00 0.00 0.00 56 1011.7
20260509014017 46 199 2.0 3.0 0.00 0.00 0.00 55 1011.5
20260509013017 46 210 2.0 4.0 0.00 0.00 0.00 54 1011.4
20260509012016 46 193 2.0 5.0 0.00 0.00 0.00 54 1011.2
20260509011017 47 189 2.0 4.0 0.00 0.00 0.00 54 1011.1
20260509010036 47 193 2.0 3.0 0.00 0.00 0.00 52 1011.0
20260509005036 47 198 2.0 4.0 0.00 0.00 0.00 52 1010.7
20260509004017 48 192 2.0 4.0 0.00 0.00 0.00 51 1010.6
20260509003016 49 210 2.0 3.0 0.00 0.00 0.00 50 1010.5
20260509002017 50 187 2.0 2.0 0.00 0.00 0.00 49 1010.4
20260509001015 51 182 2.0 4.0 0.00 0.00 0.00 46 1010.3
20260509000016 53 198 1.0 4.0 0.00 0.00 0.00 45 1010.3
20260508235017 54 296 2.0 6.0 0.00 0.00 0.00 44 1010.3
20260508234018 55 293 3.0 9.0 0.00 0.00 0.00 42 1010.2
20260508233016 57 217 1.0 9.0 0.00 0.00 0.00 41 1010.2
20260508232017 57 311 2.0 9.0 0.00 0.00 0.00 41 1010.1
20260508231015 57 325 4.0 12.0 0.00 0.00 0.00 40 1010.1
20260508230056 58 277 2.0 8.0 0.00 0.00 0.00 42 1010.1
20260508225017 57 332 4.0 10.0 0.00 0.00 0.00 41 1010.0
20260508224016 57 316 5.0 9.0 0.00 0.00 0.00 41 1010.0
20260508223017 56 356 2.0 12.0 0.00 0.00 0.00 43 1009.9
20260508222017 56 318 6.0 13.0 0.00 0.00 0.00 42 1009.9
20260508221016 57 307 5.0 11.0 0.00 0.00 0.00 41 1010.0
20260508220016 56 318 5.0 16.0 0.00 0.00 0.00 41 1010.0
20260508215057 57 0 4.0 12.0 0.00 0.00 0.00 42 1010.0
20260508214516 58 319 4.0 16.0 0.00 0.00 0.00 42 1010.1
20260508213613 58 315 5.0 11.0 0.00 0.00 0.00 39 1010.0
20260508213036 58 325 6.0 18.0 0.00 0.00 0.00 39 1010.0
20260508212037 59 326 3.0 11.0 0.00 0.00 0.00 39 1009.9
20260508211018 60 326 8.0 19.0 0.00 0.00 0.00 37 1009.9
20260508210037 60 322 6.0 18.0 0.00 0.00 0.00 36 1009.9
20260508205016 60 329 6.0 17.0 0.00 0.00 0.00 39 1009.8
20260508204017 60 321 6.0 13.0 0.00 0.00 0.00 39 1009.8
20260508203016 60 319 8.0 16.0 0.00 0.00 0.00 39 1009.8
20260508202017 59 243 4.0 17.0 0.00 0.00 0.00 41 1009.8
20260508201017 59 330 8.0 20.0 0.00 0.00 0.00 40 1009.8
20260508200016 60 318 5.0 17.0 0.00 0.00 0.00 39 1009.8
20260508195017 60 329 8.0 17.0 0.00 0.00 0.00 40 1009.9
20260508194016 60 323 7.0 15.0 0.00 0.00 0.00 40 1009.9
20260508193016 59 327 6.0 15.0 0.00 0.00 0.00 41 1010.0
20260508192017 59 329 5.0 15.0 0.00 0.00 0.00 41 1010.0
20260508191015 59 310 5.0 12.0 0.00 0.00 0.00 40 1010.0
20260508190016 59 330 4.0 14.0 0.00 0.00 0.00 40 1010.0
20260508185017 60 321 7.0 17.0 0.00 0.00 0.00 38 1010.2
20260508184015 60 329 6.0 18.0 0.00 0.00 0.00 39 1010.2
20260508183016 60 331 4.0 15.0 0.00 0.00 0.00 41 1010.2
20260508182017 59 314 8.0 16.0 0.00 0.00 0.00 39 1010.2
20260508181018 60 337 4.0 14.0 0.00 0.00 0.00 39 1010.2
20260508180036 59 312 6.0 14.0 0.00 0.00 0.00 39 1010.3
20260508175017 58 337 5.0 20.0 0.00 0.00 0.00 39 1010.3
20260508174017 57 341 3.0 11.0 0.00 0.00 0.00 41 1010.4
20260508173016 56 330 5.0 14.0 0.00 0.00 0.00 41 1010.4
20260508172037 55 325 5.0 13.0 0.00 0.00 0.00 46 1010.5
20260508171015 55 317 4.0 12.0 0.00 0.00 0.00 45 1010.5
20260508170036 57 281 5.0 16.0 0.00 0.00 0.00 42 1010.5
20260508165016 57 299 6.0 17.0 0.00 0.00 0.00 40 1010.5
20260508164036 56 297 3.0 9.0 0.00 0.00 0.00 45 1010.5
20260508163015 55 293 5.0 14.0 0.00 0.00 0.00 45 1010.5
20260508162016 56 303 6.0 14.0 0.00 0.00 0.00 41 1010.5
20260508161017 57 324 7.0 14.0 0.00 0.00 0.00 39 1010.5
20260508160016 57 320 7.0 17.0 0.00 0.00 0.00 40 1010.5
20260508155017 56 323 7.0 17.0 0.00 0.00 0.00 40 1010.6
20260508154017 56 328 6.0 16.0 0.00 0.00 0.00 40 1010.6
20260508153016 56 315 5.0 14.0 0.00 0.00 0.00 40 1010.5
20260508152017 57 323 5.0 11.0 0.00 0.00 0.00 41 1010.5
20260508151017 57 311 4.0 8.0 0.00 0.00 0.00 41 1010.5
20260508150016 57 322 5.0 15.0 0.00 0.00 0.00 42 1010.5
20260508145017 56 340 5.0 16.0 0.00 0.00 0.00 43 1010.4
20260508144324 56 270 4.0 6.0 0.00 0.00 0.00 44 1010.3
20260508143017 55 315 5.0 12.0 0.00 0.00 0.00 44 1010.3
20260508142347 55 315 4.0 4.0 0.00 0.00 0.00 47 1010.3
20260508141017 55 341 4.0 10.0 0.00 0.00 0.00 47 1010.3
20260508140016 54 303 4.0 11.0 0.00 0.00 0.00 49 1010.4
20260508135017 53 331 4.0 10.0 0.00 0.00 0.00 51 1010.5
20260508134036 53 300 2.0 7.0 0.00 0.00 0.00 52 1010.6
20260508133018 52 293 3.0 9.0 0.00 0.00 0.00 52 1010.8
20260508132016 51 195 2.0 9.0 0.00 0.00 0.00 55 1011.0
20260508131019 51 343 4.0 11.0 0.00 0.00 0.00 56 1011.2
20260508130016 50 290 3.0 14.0 0.00 0.01 0.00 58 1011.2
20260508125036 49 330 4.0 11.0 0.00 0.01 0.00 59 1011.2
20260508124017 48 331 4.0 11.0 0.00 0.01 0.00 61 1011.1
20260508123016 48 302 5.0 10.0 0.00 0.01 0.00 62 1011.1
20260508122036 47 317 4.0 13.0 0.00 0.01 0.00 65 1011.1
20260508121017 45 326 5.0 10.0 0.00 0.01 0.00 68 1011.2
20260508120016 44 314 4.0 9.0 0.00 0.01 0.00 69 1011.2
20260508115016 44 291 4.0 12.0 0.00 0.01 0.00 71 1011.1
20260508114017 43 329 4.0 10.0 0.00 0.01 0.00 71 1011.0
20260508113016 43 335 2.0 6.0 0.00 0.01 0.00 71 1011.0
20260508112016 43 329 2.0 7.0 0.00 0.01 0.00 71 1011.0
20260508111017 42 322 2.0 8.0 0.00 0.01 0.00 71 1011.0
20260508110056 42 329 3.0 9.0 0.00 0.01 0.00 71 1010.9
20260508105017 42 304 3.0 8.0 0.00 0.01 0.00 70 1010.7
20260508104015 42 311 3.0 7.0 0.00 0.01 0.00 69 1010.6
20260508103016 43 323 2.0 6.0 0.00 0.01 0.00 67 1010.6
20260508102037 43 270 3.0 8.0 0.00 0.01 0.00 67 1010.6
20260508101016 43 295 4.0 10.0 0.00 0.01 0.00 66 1010.5
20260508100037 44 299 4.0 14.0 0.00 0.01 0.00 63 1010.4
20260508095016 44 309 5.0 17.0 0.00 0.01 0.00 59 1010.2
20260508094017 44 313 4.0 11.0 0.00 0.01 0.00 57 1010.2
20260508093017 44 315 4.0 9.0 0.00 0.01 0.00 56 1010.0
20260508092017 44 310 3.0 14.0 0.00 0.01 0.00 55 1009.9
20260508091017 44 318 4.0 8.0 0.00 0.01 0.00 54 1009.9
20260508090016 44 317 4.0 8.0 0.00 0.01 0.00 54 1009.9
20260508085320 44 0 3.0 4.0 0.00 0.01 0.00 53 1009.8
20260508084016 44 328 4.0 10.0 0.00 0.01 0.00 53 1009.7
20260508083016 44 324 3.0 9.0 0.00 0.01 0.00 53 1009.6
20260508082017 44 321 3.0 9.0 0.00 0.01 0.00 53 1009.5
20260508081016 44 319 4.0 10.0 0.00 0.01 0.00 53 1009.4
20260508080017 44 318 4.0 7.0 0.00 0.01 0.00 53 1009.4
20260508075016 43 329 3.0 11.0 0.00 0.01 0.00 53 1009.3
20260508074016 43 318 2.0 10.0 0.00 0.01 0.00 53 1009.3
20260508073017 43 311 3.0 6.0 0.00 0.01 0.00 54 1009.3
20260508072016 43 331 3.0 8.0 0.00 0.01 0.00 53 1009.3
20260508071017 43 313 3.0 10.0 0.00 0.01 0.00 53 1009.2
20260508070017 43 320 2.0 7.0 0.00 0.01 0.00 54 1009.2
20260508065016 43 326 2.0 6.0 0.00 0.01 0.00 55 1009.1
20260508064322 42 315 1.0 3.0 0.00 0.01 0.00 58 1009.1
20260508063517 42 326 1.0 5.0 0.00 0.01 0.00 57 1009.2
20260508062839 42 0 1.0 3.0 0.00 0.01 0.00 55 1009.2
20260508062016 42 329 1.0 4.0 0.00 0.01 0.00 56 1009.3
20260508061017 42 336 1.0 8.0 0.00 0.01 0.00 55 1009.4
20260508060017 42 305 2.0 6.0 0.00 0.01 0.00 56 1009.4